Regional Weather Roundup
Issued by NWS

Home | Current Version | Previous Version | Text Only | Print | Product List | Glossary On
Versions: 1 2 3 4 5 6 7 8 9 10 11 12 13 14 15 16 17 18 19 20 21 22 23 24 25 26 27 28 29 30 31 32 33 34 35 36 37 38 39 40 41 42 43 44 45 46 47 48 49 50
000
ASUS44 KJAN 230910
RWRMS

MISSISSIPPI HOURLY WEATHER ROUNDUP
NATIONAL WEATHER SERVICE JACKSON MS
400 AM CDT WED JUL 23 2014

NOTE: "FAIR: INDICATES FEW OR NO CLOUDS BELOW 12,000 FEET WITH NO
SIGNIFICANT WEATHER AND/OR OBSTRUCTIONS TO VISIBILITY.

MSZ001>002-007>008-010>013-018>021-025>028-034>036-231000-
NORTHWEST MISSISSIPPI

CITY           SKY/WX    TMP DP  RH WIND       PRES   REMARKS
CLARKSDALE     FAIR      72  72 100 CALM      30.05S
CLEVELAND      FAIR      73  73 100 CALM      30.03S FOG
GREENWOOD      PTCLDY    71  70  96 CALM      30.04S FOG
GREENVILLE     CLEAR     73  70  90 CALM      30.03F
GRENADA        FAIR      68  68 100 CALM      30.05S
OLIVE BRANCH   CLEAR     73  73 100 CALM      30.05S
OXFORD         FAIR      72  72 100 CALM      30.07S FOG
TUNICA         SUNNY     72  70  94 N5        30.05S
$$

MSZ003>006-009-014>017-022>024-029>033-037>039-231000-
NORTHEAST MISSISSIPPI

CITY           SKY/WX    TMP DP  RH WIND       PRES   REMARKS
BELMONT        FAIR      71  70  98 CALM      30.06S FOG
COLUMBUS AFB   MOCLDY    74  74 100 CALM      30.05R
CORINTH        FAIR      72  70  94 CALM      30.05S FOG
GOLDN TRIANGLE MOCLDY    73  70  88 W3        30.05S
STARKVILLE     FAIR      72  70  94 CALM      30.05R FOG
TUPELO         MOCLDY    74  72  93 CALM      30.05R
$$

MSZ040-058-231000-
CENTRAL MISSISSIPPI

CITY           SKY/WX    TMP DP  RH WIND       PRES   REMARKS
JACKSON INTL   PTCLDY    73  71  93 CALM      30.05R
JACKSON HAWKNS PTCLDY    74  70  87 CALM      30.05R
MERIDIAN KEY   MOCLDY    67  67 100 SW3       30.05R FOG
MERIDIAN NAS   CLOUDY    70  69  97 CALM      30.05R FOG
RAYMOND        FAIR      72  66  83 CALM      30.04S HAZE
VICKSBURG      CLEAR     71  69  93 CALM      30.04S FOG
$$

MSZ059>079-231000-
SOUTH MISSISSIPPI

CITY           SKY/WX    TMP DP  RH WIND       PRES   REMARKS
BROOKHAVEN     FAIR      68  68 100 CALM      30.06F FOG
COLUMBIA       FOG       68  68 100 CALM      30.03S VSB 1/4
HATTIESBURG    FOG       68  67  96 CALM      30.04F VSB 1/4
MCCOMB         CLOUDY    69  67  93 CALM      30.04S FOG
NATCHEZ        MOCLDY    70  68  94 N3        30.05R
PINE BELT      CLEAR     66  63  88 CALM      30.05S
$$

MSZ080>082-231000-
COASTAL MISSISSIPPI

CITY           SKY/WX    TMP DP  RH WIND       PRES   REMARKS
BILOXI         CLEAR     71  70  95 N6        30.01S
PASCAGOULA     CLEAR     70  69  97 CALM      30.02S FOG
GULFPORT       CLEAR     74  69  85 N3        30.01S
$$



USA.gov is the U.S. government's official web portal to all federal, state and local government web resources and services.